Creek Data

    Home     View Charts     View Raw Data     Messages

ID Distance Battery Voltage Battery Current Internal Temp Internal Humidity External Temp Solar Input rssi snr Time Stamp Record
32297 13.3 3.63 -5 51 39 52 0 -84 8 02/13/2025 09:45 PM 13968
32296 0.0 3.82 -5 51 39 52 0 -86 8 02/13/2025 09:31 PM 13967
32295 0.0 3.65 -5 52 39 52 0 -87 8 02/13/2025 09:15 PM 13966
32294 0.0 3.65 -5 52 39 52 0.1 -89 8 02/13/2025 09:00 PM 13965
32293 13.4 3.64 -5 52 39 53 0 -87 7 02/13/2025 08:45 PM 13964
32292 13.4 3.65 -5 52 39 53 0 -87 8 02/13/2025 08:30 PM 13963
32291 13.4 3.62 -31 51 39 52 0.1 -85 8 02/13/2025 08:15 PM 13962
32290 13.4 3.62 -5 52 39 53 0 -86 8 02/13/2025 08:00 PM 13961
32289 0.0 3.62 -5 52 39 53 0.1 -85 8 02/13/2025 07:45 PM 13960
32288 0.0 3.82 -5 52 39 53 0 -83 7 02/13/2025 07:30 PM 13959
32287 0.0 3.64 -5 52 39 53 0 -82 8 02/13/2025 07:15 PM 13958
32286 0.0 3.64 -5 52 39 53 0 -82 7 02/13/2025 07:00 PM 13957
32285 0.0 3.66 -35 52 39 53 0 -80 8 02/13/2025 06:45 PM 13956
32284 0.0 3.66 -5 52 39 53 0.1 -82 8 02/13/2025 06:30 PM 13955
32283 0.0 3.65 -5 53 39 53 0 -83 8 02/13/2025 06:15 PM 13954
32282 0.0 3.65 -5 53 40 54 0.2 -81 7 02/13/2025 06:00 PM 13953
32281 0.0 3.64 -5 53 40 54 0.8 -90 6 02/13/2025 05:45 PM 13952
32280 0.0 3.71 -10 53 40 54 4.5 -88 6 02/13/2025 05:30 PM 13951
32279 0.0 3.82 -8 54 40 54 4.5 -95 6 02/13/2025 05:15 PM 13950
32278 13.5 3.81 -5 54 40 55 4.5 -87 7 02/13/2025 05:00 PM 13949
32277 13.6 3.87 17 54 40 55 4.5 -80 8 02/13/2025 04:45 PM 13948
32276 13.6 3.93 8 55 40 55 4.5 -81 8 02/13/2025 04:30 PM 13947
32275 13.6 3.81 0 56 40 56 5.1 -80 7 02/13/2025 04:15 PM 13946
32274 28.7 3.87 6 57 40 56 5.1 -89 7 02/13/2025 04:00 PM 13945
32273 0.0 3.82 0 59 39 57 5.1 -85 9 02/13/2025 03:45 PM 13944